STARLINK-32331, 61623

Orbit data source: Space-Track

STARLINK-32331, 61623 is a payload satellite owned by SpaceX/Seattle (US) in LEO that was launched on Wed, 23 Oct 2024 UTC via an FALCON 9 launch vehicle from the Air Force Eastern Test Range (AFETR). Payload-class satellites include a variety of spacecraft equipped with specific instruments for various scientific and technological missions. These include communications satellites like Starlink; space stations such as the ISS; scientific satellites like the Hubble; Earth observation satellites from companies like Planet Labs, Umbra, and HawkEye 360; GPS; miniature CubeSats for education and research; and military/defense satellites.

Loading next visibility...
Identifier
61623, 2024-191C
Orbit
LEO
Last TLE update
12 hours ago
Origin
Manufacturer
SpaceX/Seattle
Mission
Operational Commercial Communications
Bus & Motor
STARLINK V2M, Unknown motor
Mass
730 kg wet, ~700 kg dry
Launch date (UTC)
2024-10-23 (8 months ago)
Launch vehicle
FALCON 9
Launch site
Air Force Eastern Test Range (AFETR)
Object type
Payload
Rocket body
Debris
Shape & HBR
Box + 2 Pan, 29 m
Radar Cross Section
36.964 m², Large (>1 m²)

Expand to show TLE details & history

TLE from 12 hours ago
0 STARLINK-32331
1 61623U 24191C   25188.80230325 -.00004511  00000-0 -15455-3 0  9998
2 61623  43.0064 101.0027 0001969 271.9274  88.1352 15.27567612 40042
Epoch: 2025-07-07T19:15Z
TLE epoch observation values (Epoch: 2025-07-07T19:15:19Z)
Latitude
-0.00005°
Longitude
-113.83293°
Altitude
482.819 km
Speed
7.626 km/s
True Right ascension
06h 44m 00s
True Declination
0° 00' 00"
Sunlit
Object was in daylight at epoch
Visualization orbit readout
Latitude
-38.39111°
Longitude
-174.37175°
Altitude
493.211 km
Speed
7.619 km/s
Apparent Right ascension
05h 01m 13s
Apparent Declination
-45° 17' 08"
Sunlit
Object is in daylight
Visualization observer readout
Local Sidereal Time
19:37:05
Azimuth
113.678° SE
Elevation
-61.11°
Doppler factor
1
Orbital elements
Apogee altitude
486.382 km
Perigee altitude
483.679 km
Semi-major axis
6,863.167 km
Eccentricity
0.0002
Inclination
43.0064°
RAAN
101.0027°
Arg. of periapsis
271.9274°
True anomaly
Unknown
Mean anomaly
88.1352°
Eccentric anomaly
Unknown
Mean motion
3.8173 °/min
Orbital period
94.31 mins
BSTAR
-0.00015455
Loading maneuver chart data...
Loading SW <> Apogee altitude chart data...
Loading historical data...
Loading historical data...
Loading historical data...
Loading historical data...
Loading historical data...
Loading historical data...
Loading historical data...

STARLINK-32331 Visibility forecast

Observer location: undefined°, undefined°

Span
Click to sort rows by Start time (UTC) header in descending order
Start Az.
Max El. time (UTC)
Max El. Az.
Max El.
End time (UTC)
End Az.
5 mins2025-07-08 20:32:31.651Z190.161° SSW2025-07-08 20:35:31.651Z136.42° SSE18.025°2025-07-08 20:37:31.651Z101.614° ESE
5 mins2025-07-08 22:11:31.651Z244.574° WSW2025-07-08 22:13:31.651Z211.763° SW44.004°2025-07-08 22:16:31.651Z73.706° E
5 mins2025-07-08 23:50:31.651Z286.546° WNW2025-07-08 23:52:31.651Z335.31° NNW37.395°2025-07-08 23:55:31.651Z70.058° E
6 mins2025-07-09 01:29:31.651Z291.487° WNW2025-07-09 01:32:31.651Z72.077° E41.697°2025-07-09 01:35:31.651Z100.698° ESE
5 mins2025-07-09 03:08:31.651Z264.996° W2025-07-09 03:10:31.651Z221.525° SW26.899°2025-07-09 03:13:31.651Z153.466° SSE
|